STARLINK-32079, 60336

Orbit data source: Space-Track

STARLINK-32079, 60336 is a payload satellite owned by SpaceX/Seattle (US) in LEO that was launched on Fri, 02 Aug 2024 UTC via an FALCON 9 launch vehicle from the Air Force Eastern Test Range (AFETR). Payload-class satellites include a variety of spacecraft equipped with specific instruments for various scientific and technological missions. These include communications satellites like Starlink; space stations such as the ISS; scientific satellites like the Hubble; Earth observation satellites from companies like Planet Labs, Umbra, and HawkEye 360; GPS; miniature CubeSats for education and research; and military/defense satellites.

Loading next visibility...
Identifier
60336, 2024-136H
Orbit
LEO
Country
Flag of USUS
Related business
Manufacturer
SpaceX/Seattle
Mission
Operational Commercial Communications
Bus & Motor
STARLINK V2M, Unknown motor
Mass
730 kg wet, ~700 kg dry
Launch date (UTC)
2024-08-02 (2 years ago)
Launch vehicle
FALCON 9
Launch site
Air Force Eastern Test Range (AFETR)
Object type
Payload
Rocket body
Debris
Shape & HBR
Box + 2 Pan, 17.7 m
Radar Cross Section
33.884 m², Large (>1 m²)

Expand to show TLE details & history
Last TLE update: 9 hours ago

TLE from 9 hours ago
0 STARLINK-32079
1 60336U 24136H   26036.94986091 -.00000041  00000-0  10746-4 0  9995
2 60336  53.1574 223.1956 0000970 146.9640 213.1422 15.30195126 84807
Epoch: 2026-02-05T22:47Z
TLE epoch observation values (Epoch: 2026-02-05T22:47:47.982Z)
Latitude
0.00002°
Longitude
105.15094°
Altitude
476.686 km
Speed
7.628 km/s
True Right ascension
14h 52m 46s
True Declination
0° 00' 00"
Sunlit
Object was in daylight at epoch
Visualization orbit readout
Latitude
Unknown
Longitude
Unknown
Altitude
Unknown
Speed
Unknown
Apparent Right ascension
Unknown
Apparent Declination
Unknown
Sunlit
N/A
Visualization observer readout
Local Sidereal Time
09:45:49
Azimuth
Unknown
Elevation
Unknown
Doppler factor
Unknown
Orbital elements
Apogee altitude
476.151 km
Perigee altitude
474.822 km
Semi-major axis
6,853.623 km
Eccentricity
0.0001
Inclination
53.1574°
RAAN
223.1956°
Arg. of periapsis
146.964°
True anomaly
213.13612°
Mean anomaly
213.1422°
Eccentric anomaly
213.13916°
Mean motion
3.82528 °/min
Orbital period
94.11 mins
BSTAR
0.000010746
Loading maneuver chart data...
Computing Atmospheric mass density...
Loading historical data...
Loading historical data...
Loading historical data...
Loading historical data...
Loading historical data...
Loading historical data...
Loading historical data...

Documentation

Showing up to 5 results
|